Joshua Ellis

Recruteur en chef - Cheltenham Town
22 Août 2027
Dimanche
Processus

Personnalité

Adaptabilité (1) Ambition (18) Controverse (18) Loyauté (18) Pression (15) Professionnalisme (19) Sportivité (1) Tempérament (15)

Profil

Style d'entraînement Démocratique
Diplôme National A
Détermination 3
Gestion des joueurs 6
Motivation 8
Discipline 3
Satisfaction professionnelle
96%
Fatigue
0%
Rôle Recruteur en chef
Salaire 17.1K p/s
Contrat 14.03.2029

Performance

Comportement Bon
Efficacité de l'entraînement
32%
Développement des joueurs
35%
Prévention des blessures
15%
Mise en place tactique
40%

Événements récents

A participé à une réunion de recrutement 14j
A évalué un joueur 21j
A participé à une réunion de recrutement 21j
A évalué un joueur 21j
A évalué un joueur 21j
A évalué un joueur 21j
A évalué un joueur 28j
A évalué un joueur 28j

Suivi en cours

85
Joueur Club Statut Capacité Confiance Observé Dernière observation Dernier vote
Kimarni Smith Barnet Actif 103 / 107 40% 1 01.08.2027 -
Michael De Marchi Pergolettese Actif 110 / 110 40% 1 01.08.2027 -
Lucas Cano All Boys Actif 103 / 117 40% 2 28.07.2027 -
Claudio Morra Vicenza Actif 116 / 113 40% 1 28.07.2027 -
Alao Dabani Plateau United Actif 74 / 78 40% 1 27.07.2027 -
Robert Murić Floriana Actif 110 / 105 40% 1 27.07.2027 -
Gonzalo Berterame Morón Actif 123 / 102 40% 1 26.07.2027 -
Marco Bustillo Zamora Actif 101 / 114 40% 3 25.07.2027 -
Augusto Berrondo Tristán Suárez Actif 100 / 111 40% 1 25.07.2027 -
Abubakar Bonni Enyimba Actif 73 / 82 40% 1 22.07.2027 -
Josephat Lopaga Kakamega Homeboyz Actif 77 / 97 40% 1 20.07.2027 -
Fernandinho Sliema Wanderers Actif 96 / 97 40% 1 20.07.2027 -
Alexis Domínguez Chacarita Juniors Actif 120 / 104 40% 2 19.07.2027 -
Ronny Maza Aragua Actif 112 / 85 40% 1 19.07.2027 -
Tommaso Biasci Avellino Actif 121 / 115 40% 1 17.07.2027 -
Marcelo Sliema Wanderers Actif 88 / 83 40% 1 15.07.2027 -
Simone Ianesi Pianese Actif 107 / 102 40% 2 14.07.2027 -
Manu Justo Cultural Leonesa Actif 118 / 111 40% 1 14.07.2027 -
Moussakoye Diallo Stade Malien Actif 109 / 111 40% 3 12.07.2027 -
Callum Paterson Milton Keynes Dons Actif 117 / 107 40% 1 11.07.2027 -
Tyler Walton Walsall Actif 103 / 90 40% 1 11.07.2027 -
Harvey Saunders Tranmere Rovers Actif 80 / 91 40% 2 07.07.2027 -
David Nieland Alcione Milano Actif 95 / 97 40% 1 07.07.2027 -
Michael Okoro Katsina United Actif 104 / 79 40% 1 06.07.2027 -
David Karaev KAMAZ Actif 103 / 108 40% 1 05.07.2027 -
Ricardo Dinanga Shrewsbury Town Actif 80 / 94 40% 1 05.07.2027 -
Migran Ageyan Ufa Actif 106 / 98 40% 1 04.07.2027 -
Lamine Diakité Djoliba Actif 93 / 110 40% 1 01.07.2027 -
Samuel Ayanrinde Kenya Police Actif 91 / 85 40% 1 01.07.2027 -
Alexandr Saplinov Volga Actif 95 / 112 40% 1 30.06.2027 -
Thomas Agyepong Ashanti Gold Actif 83 / 95 40% 1 30.06.2027 -
Seb Palmer-Houlden Gillingham Actif 107 / 103 40% 1 29.06.2027 -
Gavin Vlijter Giana Erminio Actif 98 / 99 40% 1 28.06.2027 -
Jack Vale Pro Vercelli Actif 91 / 102 40% 1 27.06.2027 -
Samson Tovide Colchester United Actif 109 / 97 40% 1 27.06.2027 -
Alejandro Gómez Forli Actif 86 / 97 40% 2 25.06.2027 -
Beryly Lubala Vicenza Actif 107 / 108 40% 2 25.06.2027 -
Brendan Wiredu Plymouth Argyle Actif 117 / 109 40% 1 22.06.2027 -
Azubuike Casmir Abia Warriors Actif 86 / 88 40% 1 21.06.2027 -
Kamran Aliev SKA Khabarovsk Actif 108 / 113 40% 1 20.06.2027 -
Dylan Williams Burton Albion Actif 107 / 94 40% 1 20.06.2027 -
Igbunu Evwierhurhoma Warri Wolves Actif 72 / 84 40% 1 18.06.2027 -
Michele Ambrosini AlbinoLeffe Actif 110 / 105 40% 1 18.06.2027 -
Christian D'Urso Triestina Actif 97 / 103 40% 2 17.06.2027 -
Kane Drummond Oldham Athletic Actif 103 / 91 40% 2 16.06.2027 -
Dom Jefferies Lincoln City Actif 108 / 101 40% 1 16.06.2027 -
Tom Davies Newport County Actif 84 / 90 40% 1 14.06.2027 -
Ayabonga Gwangqa Polokwane City Actif 91 / 101 40% 1 14.06.2027 -
Ilja Berkovskiy Torpedo Moscow Actif 102 / 104 40% 1 12.06.2027 -
Alfie Chang Walsall Actif 96 / 101 40% 1 11.06.2027 -
Aaron Nemane Newport County Actif 100 / 85 40% 2 10.06.2027 -
Alessio Riccardi Latina Actif 103 / 101 40% 1 10.06.2027 -
Luca Coccolo Pro Vercelli Actif 91 / 90 40% 1 06.06.2027 -
Aaron Drinan Swindon Town Actif 113 / 105 40% 1 06.06.2027 -
Abraham Bukari WAFA Actif 105 / 94 40% 1 05.06.2027 -
Enock Asubonteng Hearts of Oak Actif 87 / 95 40% 1 04.06.2027 -
Hakim Sulemana Ashanti Gold Actif 101 / 92 40% 2 02.06.2027 -
Gladson Paintsil Wa All Stars Actif 91 / 94 40% 1 02.06.2027 -
Dillon Hoogewerf Medeama Actif 93 / 107 40% 1 01.06.2027 -
Nikolay Giorgobiani Fakel Actif 119 / 104 40% 1 31.01.2027 -
Khama Furman Platinum Stars Actif 109 / 98 40% 1 30.01.2027 -
Thabo Nodada Maritzburg United Actif 96 / 102 40% 1 30.01.2027 -
George Honeyman Blackpool Actif 97 / 106 40% 1 30.01.2027 -
Happy Mashiane Free State Stars Actif 118 / 90 40% 1 29.01.2027 -
Teboho Tlolane Golden Arrows Actif 112 / 111 40% 1 27.01.2027 -
Bathusi Aubaas Mamelodi Sundowns Refusé 133 / 118 40% 1 27.01.2027 Plus d'infos
Nhlanhla Zwane Golden Arrows Actif 102 / 81 40% 1 27.01.2027 -
Kyle Jurgens Maritzburg United Actif 111 / 120 40% 1 27.01.2027 -
Giovanni Philander Polokwane City Actif 105 / 101 40% 1 26.01.2027 -
Rui Costa Port Vale Actif 108 / 116 40% 1 26.01.2027 -
Charles Vernam Grimsby Town Actif 108 / 110 40% 1 26.01.2027 -
Evans Mensah Great Olympics Actif 110 / 91 40% 1 26.01.2027 -
Ahmet Arslan Septemvri Actif 119 / 108 40% 1 25.01.2027 Plus d'infos
Kemar Reid Birkirkara Actif 89 / 85 40% 1 25.01.2027 -
Kyle John Port Vale Actif 105 / 101 40% 1 08.01.2027 -
Isaac Hemans Ashanti Gold Actif 86 / 83 40% 1 08.01.2027 -
Victor Adeboyejo JS Saoura Actif 89 / 105 40% 1 11.08.2026 -
Olwethu Ncube Golden Arrows Actif 83 / 105 40% 1 09.08.2026 -
Lerato Manzini US Forces Armees Actif 93 / 83 40% 1 07.08.2026 -
Emiliano Marcondes OB Actif 116 / 98 40% 1 05.08.2026 -
Jerome Karelse Golden Arrows Actif 83 / 106 40% 1 04.08.2026 -
Ashley Du Preez Kaizer Chiefs Actif 91 / 95 40% 1 04.08.2026 -
Fiacre Ntwari Kaizer Chiefs Actif 104 / 100 40% 1 03.08.2026 -
Melusi Buthelezi Orlando Pirates Actif 101 / 106 40% 1 03.08.2026 -
Geovanni Banguera Deportivo Pasto Actif 121 / 113 40% 1 01.08.2026 -